Weather History for Clinton, NC

Change the Weather History Date:

Monday, April 1, 2013

  Actual Average (KFAY) Record (KFAY)
Temperature  
Mean Temperature 63 °F 59 °F  
Max Temperature 73 °F 71 °F 87 °F (1940)
Min Temperature 53 °F 47 °F 26 °F (1923)
Degree Days  
Heating Degree Days 2 7  
Month to date heating degree days 7  
Since 1 July heating degree days 2576  
Cooling Degree Days 0 1  
Month to date cooling degree days 1  
Year to date cooling degree days 17  
Growing Degree Days 13 (Base 50)    
Moisture  
Dew Point 53 °F    
Average Humidity 76    
Maximum Humidity 100    
Minimum Humidity 33    
Precipitation  
Precipitation 0.18 in 0.13 in 4.25 in (1973)
Month to date precipitation 0.13  
Year to date precipitation 9.74  
Sea Level Pressure  
Sea Level Pressure 29.87 in    
Wind  
Wind Speed 4 mph (WSW)    
Max Wind Speed 10 mph    
Max Gust Speed 18 mph    
Visibility 9 miles    
Events Rain    
T = Trace of Precipitation, MM = Missing Value Source: NWS Daily Summary

Daily Weather History Graph

Daily Weather History Graph

Search for Another Location

Airport:

Trip Planner

Search our weather history database for the weather conditions in past years. The results will help you decide how hot, cold, wet, or windy it might be!

Date:

Astronomy

Apr. 01, 2013 Rise Set
Actual Time 6:59 AM EDT 7:34 PM EDT
Civil Twilight 6:34 AM EDT 8:00 PM EDT
Nautical Twilight 6:04 AM EDT 8:30 PM EDT
Astronomical Twilight 5:33 AM EDT 9:01 PM EDT
Moon 12:31 AM EDT (4/1) 10:54 AM EDT (4/1)
Length of Visible Light 13h 25m
Length of Day
12h 34m
Waning Gibbous, 67% of the Moon is Illuminated
Apr 1
Waning Gibbous
Apr 3
Last Quarter
Apr 10
New
Apr 18
First Quarter
Apr 25
Full

Hourly Weather History & Observations

Time (EDT) Temp. Dew Point Humidity Pressure Visibility Wind Dir Wind Speed Gust Speed Precip Events Conditions
12:15 AM 60.3 °F 59.2 °F 96% 29.88 in 10.0 mi West 4.6 mph - N/A   Scattered Clouds
12:35 AM 60.1 °F 59.0 °F 96% 29.88 in 10.0 mi SW 3.5 mph - N/A   Scattered Clouds
12:55 AM 59.4 °F 58.3 °F 96% 29.88 in 10.0 mi Calm Calm - N/A   Scattered Clouds
1:15 AM 58.6 °F 57.9 °F 97% 29.88 in 10.0 mi Calm Calm - N/A   Clear
1:35 AM 58.5 °F 58.1 °F 99% 29.88 in 10.0 mi Calm Calm - N/A   Clear
1:55 AM 57.9 °F 57.6 °F 99% 29.87 in 10.0 mi Calm Calm - N/A   Scattered Clouds
2:15 AM 58.1 °F 57.7 °F 99% 29.87 in 10.0 mi Calm Calm - N/A   Mostly Cloudy
2:35 AM 58.6 °F 58.1 °F 98% 29.87 in 10.0 mi Calm Calm - N/A   Overcast
2:55 AM 59.0 °F 58.3 °F 97% 29.86 in 10.0 mi South 3.5 mph - N/A   Overcast
3:15 AM 59.0 °F 58.3 °F 97% 29.86 in 10.0 mi SSW 3.5 mph - N/A   Overcast
3:35 AM 59.0 °F 58.3 °F 97% 29.85 in 10.0 mi Calm Calm - N/A   Overcast
3:55 AM 59.0 °F 59.0 °F 100% 29.84 in 10.0 mi SSW 4.6 mph - N/A   Overcast
4:15 AM 59.0 °F 58.5 °F 98% 29.84 in 10.0 mi SSW 4.6 mph - N/A   Overcast
4:35 AM 59.0 °F 59.0 °F 100% 29.85 in 5.0 mi SW 6.9 mph - 0.04 in Rain Rain
4:55 AM 59.2 °F 59.2 °F 100% 29.84 in 10.0 mi SW 6.9 mph - 0.05 in Rain Light Rain
5:15 AM 59.4 °F 59.4 °F 100% 29.85 in 7.0 mi WSW 10.4 mph 16.1 mph 0.02 in Rain Light Rain
5:35 AM 59.9 °F 59.5 °F 99% 29.86 in 7.0 mi WSW 8.1 mph - 0.04 in Rain Rain
5:55 AM 59.9 °F 59.9 °F 100% 29.86 in 7.0 mi WSW 9.2 mph - 0.07 in Rain Light Rain
6:15 AM 59.9 °F 59.9 °F 100% 29.85 in 7.0 mi West 5.8 mph - 0.01 in Rain Light Rain
6:35 AM 59.9 °F 59.7 °F 99% 29.85 in 10.0 mi WSW 6.9 mph - 0.01 in Rain Light Rain
6:55 AM 59.9 °F 59.4 °F 98% 29.85 in 10.0 mi WSW 4.6 mph - 0.02 in Rain Light Rain
7:15 AM 59.4 °F 59.4 °F 100% 29.86 in 7.0 mi SW 3.5 mph - 0.01 in Rain Light Rain
7:35 AM 59.4 °F 59.4 °F 100% 29.86 in 7.0 mi WSW 4.6 mph - 0.01 in   Drizzle
7:55 AM 59.5 °F 59.5 °F 100% 29.87 in 7.0 mi SW 3.5 mph - 0.01 in Rain Light Rain
8:15 AM 59.4 °F 59.4 °F 100% 29.87 in 5.0 mi SW 5.8 mph - N/A   Light Drizzle
8:35 AM 59.5 °F 59.5 °F 100% 29.88 in 7.0 mi WSW 5.8 mph - N/A   Overcast
8:55 AM 60.8 °F 60.8 °F 100% 29.89 in 4.0 mi WSW 5.8 mph - N/A Rain Rain
9:15 AM 59.9 °F 59.9 °F 100% 29.89 in 5.0 mi West 4.6 mph - 0.02 in Rain Rain
9:35 AM 59.5 °F 59.4 °F 99% 29.90 in 7.0 mi NW 5.8 mph - 0.02 in   Light Drizzle
9:55 AM 59.4 °F 59.2 °F 99% 29.89 in 7.0 mi Calm Calm - 0.03 in Rain Rain
10:15 AM 59.5 °F 59.2 °F 99% 29.89 in 10.0 mi Calm Calm - N/A   Overcast
10:35 AM 59.9 °F 59.4 °F 98% 29.89 in 7.0 mi NNW 3.5 mph - N/A   Overcast
10:55 AM 59.9 °F 59.0 °F 97% 29.89 in 10.0 mi North 3.5 mph - N/A   Overcast
11:15 AM 60.8 °F 58.8 °F 93% 29.89 in 10.0 mi NW 4.6 mph - N/A   Overcast
11:35 AM 60.8 °F 57.6 °F 89% 29.90 in 10.0 mi Calm Calm - N/A   Overcast
11:55 AM 60.8 °F 57.2 °F 88% 29.90 in 10.0 mi Calm Calm - N/A   Overcast
12:15 PM 61.9 °F 57.0 °F 84% 29.90 in 10.0 mi Calm Calm - N/A   Overcast
12:35 PM 62.8 °F 56.5 °F 80% 29.89 in 10.0 mi West 4.6 mph - N/A   Overcast
12:55 PM 64.4 °F 55.8 °F 73% 29.88 in 10.0 mi SW 3.5 mph - N/A   Mostly Cloudy
1:15 PM 65.1 °F 54.7 °F 69% 29.88 in 10.0 mi NW 4.6 mph - N/A   Clear
1:35 PM 66.4 °F 54.5 °F 66% 29.87 in 10.0 mi West 6.9 mph - N/A   Clear
1:55 PM 68.0 °F 53.6 °F 60% 29.86 in 10.0 mi North 3.5 mph - N/A   Scattered Clouds
2:15 PM 68.9 °F 50.0 °F 51% 29.86 in 10.0 mi NW 5.8 mph - N/A   Scattered Clouds
2:35 PM 69.1 °F 48.4 °F 48% 29.85 in 10.0 mi West 3.5 mph - N/A   Scattered Clouds
2:55 PM 70.2 °F 47.7 °F 45% 29.85 in 10.0 mi WNW 9.2 mph - N/A   Scattered Clouds
3:15 PM 70.0 °F 47.5 °F 45% 29.84 in 10.0 mi SW 8.1 mph - N/A   Scattered Clouds
3:35 PM 71.2 °F 48.2 °F 44% 29.83 in 10.0 mi WNW 5.8 mph - N/A   Scattered Clouds
3:55 PM 71.6 °F 48.2 °F 43% 29.83 in 10.0 mi WSW 9.2 mph 18.4 mph N/A   Scattered Clouds
4:15 PM 70.9 °F 45.5 °F 40% 29.83 in 10.0 mi WSW 6.9 mph 17.3 mph N/A   Scattered Clouds
4:35 PM 72.3 °F 46.9 °F 40% 29.83 in 10.0 mi WSW 8.1 mph - N/A   Scattered Clouds
4:55 PM 72.9 °F 47.5 °F 40% 29.82 in 10.0 mi WSW 9.2 mph - N/A   Clear
5:15 PM 72.7 °F 46.2 °F 39% 29.82 in 10.0 mi SW 10.4 mph - N/A   Clear
5:35 PM 72.0 °F 45.1 °F 38% 29.82 in 10.0 mi WSW 6.9 mph - N/A   Clear
5:55 PM 73.4 °F 44.1 °F 35% 29.83 in 10.0 mi West 8.1 mph - N/A   Scattered Clouds
6:15 PM 73.4 °F 42.8 °F 33% 29.83 in 10.0 mi West 10.4 mph - N/A   Mostly Cloudy
6:35 PM 71.2 °F 43.5 °F 37% 29.84 in 10.0 mi West 5.8 mph - N/A   Mostly Cloudy
6:55 PM 71.6 °F 44.6 °F 38% 29.84 in 10.0 mi Calm Calm - N/A   Mostly Cloudy
7:15 PM 70.5 °F 43.2 °F 37% 29.85 in 10.0 mi West 5.8 mph - N/A   Scattered Clouds
7:35 PM 68.9 °F 42.8 °F 39% 29.85 in 10.0 mi Calm Calm - N/A   Clear
7:55 PM 66.9 °F 44.4 °F 44% 29.85 in 10.0 mi Calm Calm - N/A   Clear
8:15 PM 61.9 °F 46.6 °F 57% 29.86 in 10.0 mi Calm Calm - N/A   Clear
8:35 PM 59.2 °F 45.3 °F 60% 29.86 in 10.0 mi Calm Calm - N/A   Clear
8:55 PM 57.2 °F 46.4 °F 67% 29.87 in 10.0 mi Calm Calm - N/A   Clear
9:15 PM 56.7 °F 44.4 °F 64% 29.88 in 10.0 mi Calm Calm - N/A   Clear
9:35 PM 55.6 °F 46.4 °F 71% 29.88 in 10.0 mi Calm Calm - N/A   Clear
9:55 PM 55.0 °F 46.9 °F 74% 29.89 in 10.0 mi Calm Calm - N/A   Clear
10:15 PM 58.6 °F 44.1 °F 58% 29.91 in 10.0 mi North 3.5 mph - N/A   Clear
10:35 PM 59.5 °F 44.1 °F 57% 29.91 in 10.0 mi Calm Calm - N/A   Clear
10:55 PM 55.2 °F 46.9 °F 74% 29.92 in 10.0 mi Calm Calm - N/A   Clear
11:15 PM 53.6 °F 48.2 °F 82% 29.92 in 10.0 mi Calm Calm - N/A   Scattered Clouds
11:35 PM 54.0 °F 47.3 °F 78% 29.93 in 10.0 mi Calm Calm - N/A   Overcast
11:55 PM 57.0 °F 45.5 °F 65% 29.94 in 10.0 mi Calm Calm - N/A   Overcast